| time (UTC) | temp F | wind direction | speed knots | gust knots | rain 1hr in | rain 24hr in | rain mn in | humidity % | barometer mb |
| 20260507090032 | 59 | 158 | 4.3 | 7.0 | 0.00 | 0.44 | 0.44 | 94 | 1014.3 |
| 20260507085529 | 59 | 166 | 1.7 | 2.6 | 0.00 | 0.44 | 0.44 | 94 | 1014.2 |
| 20260507085026 | 59 | 176 | 2.6 | 2.6 | 0.00 | 0.44 | 0.44 | 94 | 1014.4 |
| 20260507084522 | 58 | 144 | 1.7 | 2.6 | 0.00 | 0.44 | 0.44 | 94 | 1014.4 |
| 20260507084020 | 58 | 195 | 1.7 | 2.6 | 0.00 | 0.44 | 0.44 | 95 | 1014.3 |
| 20260507083516 | 58 | 182 | 1.7 | 2.6 | 0.00 | 0.44 | 0.44 | 95 | 1014.2 |
| 20260507083013 | 58 | 148 | 2.6 | 4.3 | 0.00 | 0.44 | 0.44 | 95 | 1014.4 |
| 20260507082509 | 58 | 182 | 1.7 | 4.3 | 0.00 | 0.44 | 0.44 | 95 | 1014.4 |
| 20260507082005 | 58 | 173 | 2.6 | 2.6 | 0.00 | 0.44 | 0.44 | 95 | 1014.3 |
| 20260507081502 | 58 | 209 | 0.0 | 0.0 | 0.00 | 0.44 | 0.44 | 96 | 1014.0 |
| 20260507080959 | 58 | 163 | 3.5 | 4.3 | 0.00 | 0.44 | 0.44 | 96 | 1014.3 |
| 20260507080454 | 58 | 228 | 0.9 | 1.7 | 0.00 | 0.44 | 0.44 | 96 | 1014.3 |
| 20260507075950 | 58 | 136 | 0.9 | 1.7 | 0.00 | 0.44 | 0.44 | 96 | 1014.2 |
| 20260507075446 | 58 | 165 | 1.7 | 1.7 | 0.00 | 0.44 | 0.44 | 96 | 1014.3 |
| 20260507074943 | 58 | 177 | 0.9 | 1.7 | 0.00 | 0.44 | 0.44 | 96 | 1014.1 |
| 20260507074440 | 58 | 171 | 2.6 | 2.6 | 0.00 | 0.44 | 0.44 | 96 | 1014.1 |
| 20260507073938 | 57 | 119 | 2.6 | 4.3 | 0.00 | 0.44 | 0.44 | 96 | 1014.2 |
| 20260507073434 | 57 | 196 | 1.7 | 2.6 | 0.00 | 0.44 | 0.44 | 96 | 1014.0 |
| 20260507072931 | 57 | 176 | 0.9 | 1.7 | 0.00 | 0.44 | 0.44 | 96 | 1013.8 |
| 20260507072428 | 57 | 137 | 3.5 | 5.2 | 0.00 | 0.44 | 0.44 | 96 | 1014.0 |
| 20260507071926 | 57 | 191 | 2.6 | 4.3 | 0.00 | 0.44 | 0.44 | 96 | 1014.0 |
| 20260507071422 | 57 | 138 | 1.7 | 4.3 | 0.00 | 0.44 | 0.44 | 96 | 1013.8 |
| 20260507070919 | 57 | 143 | 1.7 | 1.7 | 0.00 | 0.44 | 0.44 | 96 | 1013.9 |
| 20260507070416 | 57 | 176 | 3.5 | 4.3 | 0.00 | 0.44 | 0.44 | 96 | 1013.8 |
| 20260507065913 | 57 | 190 | 1.7 | 1.7 | 0.00 | 0.44 | 0.44 | 96 | 1013.6 |
| 20260507065409 | 57 | 148 | 0.9 | 1.7 | 0.00 | 0.44 | 0.44 | 96 | 1013.6 |
| 20260507064907 | 57 | 160 | 2.6 | 4.3 | 0.00 | 0.44 | 0.44 | 96 | 1013.3 |
| 20260507064404 | 57 | 168 | 1.7 | 2.6 | 0.00 | 0.44 | 0.44 | 96 | 1013.3 |
| 20260507063857 | 57 | 193 | 3.5 | 5.2 | 0.00 | 0.44 | 0.44 | 96 | 1013.4 |
| 20260507063354 | 57 | 126 | 3.5 | 4.3 | 0.00 | 0.44 | 0.44 | 96 | 1013.4 |
| 20260507062851 | 57 | 163 | 3.5 | 4.3 | 0.00 | 0.44 | 0.44 | 96 | 1013.6 |
| 20260507062347 | 57 | 172 | 4.3 | 6.1 | 0.00 | 0.44 | 0.44 | 96 | 1013.3 |
| 20260507061845 | 57 | 184 | 0.9 | 1.7 | 0.00 | 0.44 | 0.44 | 96 | 1013.4 |
| 20260507061343 | 57 | 146 | 3.5 | 4.3 | 0.00 | 0.44 | 0.44 | 96 | 1013.2 |
| 20260507060841 | 57 | 177 | 1.7 | 2.6 | 0.00 | 0.44 | 0.44 | 96 | 1013.3 |
| 20260507060338 | 57 | 154 | 3.5 | 6.1 | 0.00 | 0.44 | 0.44 | 96 | 1013.0 |
| 20260507055835 | 57 | 173 | 2.6 | 2.6 | 0.05 | 0.44 | 0.44 | 96 | 1013.3 |
| 20260507055329 | 57 | 159 | 0.9 | 1.7 | 0.05 | 0.44 | 0.44 | 96 | 1013.3 |
| 20260507054827 | 57 | 150 | 2.6 | 4.3 | 0.00 | 0.43 | 0.43 | 96 | 1013.3 |
| 20260507054323 | 57 | 164 | 2.6 | 4.3 | 0.07 | 0.43 | 0.43 | 96 | 1013.2 |
| 20260507053820 | 57 | 188 | 2.6 | 4.3 | 0.07 | 0.43 | 0.43 | 96 | 1013.1 |
| 20260507053318 | 57 | 190 | 0.9 | 1.7 | 0.00 | 0.42 | 0.42 | 96 | 1013.2 |
| 20260507052817 | 57 | 179 | 0.9 | 0.9 | 0.00 | 0.42 | 0.42 | 96 | 1013.2 |
| 20260507052313 | 57 | 224 | 0.9 | 0.9 | 0.00 | 0.42 | 0.42 | 96 | 1013.2 |
| 20260507051811 | 57 | 173 | 1.7 | 1.7 | 0.00 | 0.42 | 0.42 | 96 | 1013.2 |
| 20260507051308 | 57 | 152 | 0.0 | 0.9 | 0.05 | 0.42 | 0.42 | 96 | 1013.0 |
| 20260507050804 | 57 | 172 | 0.9 | 1.7 | 0.05 | 0.42 | 0.42 | 96 | 1013.1 |
| 20260507050301 | 57 | 166 | 0.0 | 0.0 | 0.00 | 0.41 | 0.41 | 96 | 1012.9 |
| 20260507045758 | 57 | 177 | 0.0 | 0.9 | 0.00 | 0.41 | 0.41 | 96 | 1013.0 |
| 20260507045254 | 57 | 189 | 0.0 | 0.0 | 0.00 | 0.41 | 0.41 | 95 | 1012.8 |
| 20260507044751 | 57 | 176 | 0.0 | 0.0 | 0.24 | 0.41 | 0.41 | 95 | 1013.1 |
| 20260507044248 | 57 | 203 | 2.6 | 2.6 | 0.31 | 0.41 | 0.41 | 95 | 1012.7 |
| 20260507043744 | 57 | 150 | 0.9 | 0.9 | 0.24 | 0.39 | 0.39 | 95 | 1013.0 |
| 20260507043241 | 57 | 180 | 3.5 | 6.1 | 0.12 | 0.36 | 0.36 | 95 | 1012.6 |
| 20260507042737 | 57 | 189 | 0.9 | 1.7 | 0.07 | 0.35 | 0.35 | 95 | 1012.7 |
| 20260507042232 | 57 | 144 | 2.6 | 2.6 | 0.12 | 0.34 | 0.34 | 95 | 1012.4 |
| 20260507041730 | 57 | 195 | 1.7 | 2.6 | 0.12 | 0.34 | 0.34 | 95 | 1012.6 |
| 20260507041226 | 57 | 137 | 1.7 | 2.6 | 0.00 | 0.32 | 0.32 | 95 | 1012.4 |
| 20260507040724 | 57 | 188 | 0.9 | 2.6 | 0.12 | 0.32 | 0.32 | 95 | 1012.6 |
| 20260507040219 | 57 | 171 | 1.7 | 1.7 | 0.12 | 0.32 | 0.32 | 95 | 1012.5 |
| 20260507035716 | 57 | 153 | 3.5 | 6.1 | 0.00 | 0.30 | 0.30 | 94 | 1012.3 |
| 20260507035211 | 57 | 157 | 2.6 | 5.2 | 0.07 | 0.30 | 0.30 | 94 | 1012.5 |
| 20260507034709 | 57 | 167 | 1.7 | 2.6 | 0.07 | 0.30 | 0.30 | 94 | 1012.4 |
| 20260507034206 | 57 | 155 | 1.7 | 2.6 | 0.05 | 0.29 | 0.29 | 94 | 1012.6 |
| 20260507033704 | 57 | 190 | 1.7 | 1.7 | 0.05 | 0.29 | 0.29 | 94 | 1012.6 |
| 20260507033201 | 57 | 180 | 4.3 | 7.0 | 0.00 | 0.28 | 0.28 | 93 | 1012.5 |
| 20260507032659 | 57 | 203 | 1.7 | 1.7 | 0.00 | 0.28 | 0.28 | 93 | 1012.6 |
| 20260507032154 | 57 | 168 | 0.9 | 1.7 | 0.00 | 0.28 | 0.28 | 93 | 1012.6 |
| 20260507031651 | 57 | 162 | 0.0 | 0.9 | 0.00 | 0.28 | 0.28 | 93 | 1012.6 |
| 20260507031148 | 57 | 155 | 3.5 | 6.1 | 0.54 | 0.28 | 0.28 | 92 | 1012.7 |
| 20260507030644 | 58 | 154 | 1.7 | 2.6 | 1.09 | 0.28 | 0.28 | 92 | 1012.8 |
| 20260507030143 | 58 | 173 | 0.9 | 1.7 | 1.09 | 0.22 | 0.22 | 91 | 1012.8 |
| 20260507025639 | 58 | 142 | 0.0 | 0.9 | 0.54 | 0.09 | 0.09 | 90 | 1012.8 |
| 20260507025136 | 58 | 183 | 0.0 | 0.0 | 0.17 | 0.03 | 0.03 | 90 | 1012.5 |
| 20260507024634 | 58 | 173 | 0.0 | 0.0 | 0.00 | 0.00 | 0.00 | 90 | 1012.6 |
| 20260507024131 | 58 | 172 | 0.0 | 0.0 | 0.00 | 0.00 | 0.00 | 89 | 1012.7 |
| 20260507023626 | 58 | 177 | 0.0 | 0.0 | 0.00 | 0.00 | 0.00 | 89 | 1012.5 |
| 20260507023125 | 58 | 195 | 0.9 | 0.9 | 0.00 | 0.00 | 0.00 | 89 | 1012.2 |
| 20260507022621 | 58 | 151 | 1.7 | 2.6 | 0.00 | 0.00 | 0.00 | 88 | 1012.2 |
| 20260507022116 | 58 | 178 | 0.0 | 0.9 | 0.00 | 0.00 | 0.00 | 88 | 1012.1 |
| 20260507021613 | 58 | 173 | 0.0 | 0.9 | 0.00 | 0.00 | 0.00 | 87 | 1012.2 |
| 20260507021109 | 59 | 147 | 0.0 | 0.9 | 0.00 | 0.00 | 0.00 | 87 | 1012.3 |
| 20260507020607 | 59 | 174 | 2.6 | 4.3 | 0.00 | 0.00 | 0.00 | 86 | 1012.3 |
| 20260507020103 | 59 | 112 | 3.5 | 5.2 | 0.00 | 0.00 | 0.00 | 85 | 1012.4 |
| 20260507015602 | 59 | 153 | 1.7 | 2.6 | 0.00 | 0.00 | 0.00 | 84 | 1012.5 |
| 20260507015059 | 59 | 136 | 3.5 | 7.0 | 0.00 | 0.00 | 0.00 | 84 | 1012.6 |
| 20260507014555 | 59 | 196 | 2.6 | 6.1 | 0.00 | 0.00 | 0.00 | 83 | 1012.4 |
| 20260507014051 | 59 | 160 | 0.9 | 0.9 | 0.00 | 0.00 | 0.00 | 82 | 1012.5 |
| 20260507013548 | 59 | 128 | 3.5 | 6.1 | 0.00 | 0.00 | 0.00 | 82 | 1012.3 |
| 20260507013045 | 59 | 190 | 2.6 | 5.2 | 0.00 | 0.00 | 0.00 | 81 | 1012.5 |
| 20260507012542 | 60 | 146 | 0.9 | 2.6 | 0.00 | 0.00 | 0.00 | 80 | 1012.3 |
| 20260507012038 | 60 | 159 | 1.7 | 2.6 | 0.00 | 0.00 | 0.00 | 80 | 1012.2 |
| 20260507011535 | 60 | 147 | 6.1 | 7.8 | 0.00 | 0.00 | 0.00 | 79 | 1012.2 |
| 20260507011026 | 60 | 194 | 4.3 | 7.0 | 0.00 | 0.00 | 0.00 | 79 | 1012.2 |
| 20260507010521 | 60 | 140 | 3.5 | 5.2 | 0.00 | 0.00 | 0.00 | 78 | 1012.1 |
| 20260507010018 | 60 | 187 | 2.6 | 5.2 | 0.00 | 0.00 | 0.00 | 78 | 1012.4 |
| 20260507005515 | 60 | 182 | 1.7 | 1.7 | 0.00 | 0.00 | 0.00 | 77 | 1012.2 |
| 20260507005011 | 60 | 150 | 2.6 | 2.6 | 0.00 | 0.00 | 0.00 | 78 | 1012.1 |
| 20260507004508 | 60 | 129 | 2.6 | 2.6 | 0.00 | 0.00 | 0.00 | 77 | 1012.2 |
| 20260507004006 | 60 | 178 | 0.9 | 0.9 | 0.00 | 0.00 | 0.00 | 76 | 1012.2 |
| 20260507003501 | 60 | 148 | 4.3 | 5.2 | 0.00 | 0.00 | 0.00 | 76 | 1012.2 |
| 20260507002955 | 60 | 164 | 1.7 | 4.3 | 0.00 | 0.00 | 0.00 | 75 | 1012.4 |
| 20260507002452 | 60 | 186 | 1.7 | 2.6 | 0.00 | 0.00 | 0.00 | 74 | 1012.4 |
| 20260507001944 | 60 | 189 | 3.5 | 6.1 | 0.00 | 0.00 | 0.00 | 74 | 1012.6 |
| 20260507001440 | 60 | 141 | 2.6 | 2.6 | 0.00 | 0.00 | 0.00 | 73 | 1012.5 |
| 20260507000938 | 60 | 166 | 3.5 | 4.3 | 0.00 | 0.00 | 0.00 | 74 | 1012.4 |
| 20260507000435 | 60 | 136 | 2.6 | 2.6 | 0.00 | 0.00 | 0.00 | 74 | 1012.5 |
| 20260506235929 | 60 | 136 | 5.2 | 9.6 | 0.00 | 0.00 | 0.00 | 75 | 1012.5 |
| 20260506235427 | 60 | 190 | 2.6 | 5.2 | 0.00 | 0.00 | 0.00 | 75 | 1012.7 |
| 20260506234921 | 60 | 194 | 1.7 | 1.7 | 0.00 | 0.00 | 0.00 | 75 | 1012.6 |
| 20260506234420 | 60 | 144 | 2.6 | 5.2 | 0.00 | 0.00 | 0.00 | 75 | 1012.7 |
| 20260506233917 | 60 | 182 | 4.3 | 6.1 | 0.00 | 0.00 | 0.00 | 75 | 1012.7 |
| 20260506233414 | 60 | 120 | 4.3 | 6.1 | 0.00 | 0.00 | 0.00 | 75 | 1012.6 |
| 20260506232910 | 60 | 146 | 2.6 | 5.2 | 0.00 | 0.00 | 0.00 | 75 | 1012.9 |
| 20260506232406 | 60 | 173 | 4.3 | 7.0 | 0.00 | 0.00 | 0.00 | 75 | 1012.7 |
| 20260506231902 | 60 | 189 | 4.3 | 6.1 | 0.00 | 0.00 | 0.00 | 76 | 1012.8 |
| 20260506231400 | 60 | 150 | 1.7 | 4.3 | 0.00 | 0.00 | 0.00 | 76 | 1013.0 |
| 20260506230857 | 60 | 135 | 1.7 | 1.7 | 0.00 | 0.00 | 0.00 | 75 | 1013.0 |
| 20260506230354 | 60 | 178 | 2.6 | 4.3 | 0.00 | 0.00 | 0.00 | 75 | 1012.9 |
| 20260506225850 | 60 | 184 | 2.6 | 5.2 | 0.00 | 0.00 | 0.00 | 75 | 1012.8 |
| 20260506225348 | 60 | 154 | 4.3 | 6.1 | 0.00 | 0.00 | 0.00 | 74 | 1012.6 |
| 20260506224844 | 60 | 183 | 4.3 | 12.2 | 0.00 | 0.00 | 0.00 | 75 | 1012.7 |
| 20260506224342 | 60 | 214 | 2.6 | 4.3 | 0.00 | 0.00 | 0.00 | 75 | 1012.8 |
| 20260506223838 | 60 | 228 | 3.5 | 6.1 | 0.00 | 0.00 | 0.00 | 76 | 1012.8 |
| 20260506223333 | 60 | 164 | 2.6 | 4.3 | 0.00 | 0.00 | 0.00 | 76 | 1013.0 |
| 20260506222831 | 60 | 178 | 5.2 | 7.0 | 0.00 | 0.00 | 0.00 | 76 | 1012.9 |
| 20260506222326 | 60 | 154 | 3.5 | 5.2 | 0.00 | 0.00 | 0.00 | 76 | 1012.9 |
| 20260506221825 | 60 | 158 | 3.5 | 6.1 | 0.00 | 0.00 | 0.00 | 75 | 1012.9 |
| 20260506221322 | 60 | 149 | 4.3 | 6.1 | 0.00 | 0.00 | 0.00 | 75 | 1012.7 |
| 20260506220819 | 60 | 131 | 7.0 | 8.7 | 0.00 | 0.00 | 0.00 | 74 | 1012.7 |
| 20260506220314 | 60 | 128 | 7.0 | 11.3 | 0.00 | 0.00 | 0.00 | 74 | 1012.9 |
| 20260506215811 | 60 | 169 | 3.5 | 4.3 | 0.00 | 0.38 | 0.38 | 74 | 1012.8 |
| 20260506215307 | 60 | 178 | 2.6 | 5.2 | 0.00 | 0.38 | 0.38 | 73 | 1012.7 |
| 20260506214803 | 60 | 117 | 5.2 | 7.0 | 0.00 | 0.38 | 0.38 | 73 | 1012.6 |
| 20260506214300 | 60 | 125 | 6.1 | 13.0 | 0.00 | 0.38 | 0.38 | 74 | 1012.6 |
| 20260506213758 | 60 | 123 | 7.0 | 11.3 | 0.00 | 0.38 | 0.38 | 76 | 1012.8 |
| 20260506213254 | 60 | 207 | 2.6 | 4.3 | 0.00 | 0.38 | 0.38 | 76 | 1012.8 |
| 20260506212752 | 60 | 191 | 7.0 | 9.6 | 0.00 | 0.38 | 0.38 | 76 | 1012.7 |
| 20260506212248 | 60 | 148 | 4.3 | 6.1 | 0.00 | 0.38 | 0.38 | 77 | 1012.8 |
| 20260506211743 | 60 | 117 | 2.6 | 5.2 | 0.00 | 0.38 | 0.38 | 78 | 1012.7 |
| 20260506211240 | 60 | 209 | 4.3 | 5.2 | 0.00 | 0.38 | 0.38 | 77 | 1012.4 |
| 20260506210737 | 59 | 156 | 3.5 | 6.1 | 0.00 | 0.38 | 0.38 | 78 | 1012.8 |
| 20260506210233 | 59 | 168 | 6.1 | 7.8 | 0.00 | 0.38 | 0.38 | 79 | 1012.6 |
| 20260506205730 | 59 | 151 | 6.1 | 9.6 | 0.00 | 0.38 | 0.38 | 80 | 1012.6 |
| 20260506205225 | 59 | 194 | 2.6 | 4.3 | 0.00 | 0.38 | 0.38 | 79 | 1012.6 |
| 20260506204718 | 59 | 118 | 4.3 | 7.0 | 0.00 | 0.38 | 0.38 | 80 | 1012.5 |
| 20260506204215 | 59 | 152 | 4.3 | 7.0 | 0.00 | 0.38 | 0.38 | 79 | 1012.3 |
| 20260506203713 | 59 | 178 | 3.5 | 6.1 | 0.00 | 0.38 | 0.38 | 79 | 1012.5 |
| 20260506203210 | 59 | 197 | 5.2 | 9.6 | 0.00 | 0.38 | 0.38 | 80 | 1012.4 |
| 20260506202708 | 60 | 148 | 2.6 | 4.3 | 0.00 | 0.38 | 0.38 | 80 | 1012.4 |
| 20260506202203 | 60 | 119 | 5.2 | 9.6 | 0.00 | 0.38 | 0.38 | 80 | 1012.6 |
| 20260506201701 | 59 | 177 | 6.1 | 11.3 | 0.00 | 0.38 | 0.38 | 80 | 1012.4 |
| 20260506201156 | 59 | 191 | 2.6 | 2.6 | 0.00 | 0.38 | 0.38 | 79 | 1012.4 |
| 20260506200654 | 59 | 155 | 5.2 | 7.8 | 0.00 | 0.38 | 0.38 | 80 | 1012.5 |
| 20260506200150 | 59 | 121 | 7.8 | 9.6 | 0.00 | 0.38 | 0.38 | 80 | 1012.3 |
| 20260506195647 | 60 | 188 | 3.5 | 6.1 | 0.00 | 0.38 | 0.38 | 80 | 1012.2 |
| 20260506195143 | 60 | 135 | 7.8 | 12.2 | 0.00 | 0.38 | 0.38 | 81 | 1012.2 |
| 20260506194641 | 60 | 185 | 7.8 | 11.3 | 0.00 | 0.38 | 0.38 | 81 | 1012.1 |
| 20260506194137 | 60 | 149 | 2.6 | 5.2 | 0.00 | 0.38 | 0.38 | 81 | 1012.1 |
| 20260506193635 | 60 | 113 | 4.3 | 7.0 | 0.00 | 0.38 | 0.38 | 82 | 1012.3 |
| 20260506193132 | 60 | 205 | 5.2 | 7.8 | 0.00 | 0.38 | 0.38 | 82 | 1012.1 |
| 20260506192628 | 60 | 175 | 5.2 | 7.8 | 0.00 | 0.38 | 0.38 | 83 | 1012.1 |
| 20260506192124 | 60 | 241 | 6.1 | 8.7 | 0.00 | 0.38 | 0.38 | 83 | 1012.1 |
| 20260506191621 | 60 | 144 | 4.3 | 7.0 | 0.00 | 0.38 | 0.38 | 83 | 1012.2 |
| 20260506191117 | 60 | 164 | 5.2 | 7.0 | 0.00 | 0.38 | 0.38 | 84 | 1012.2 |
| 20260506190615 | 60 | 156 | 3.5 | 6.1 | 0.00 | 0.38 | 0.38 | 84 | 1012.2 |
| 20260506190111 | 60 | 130 | 3.5 | 4.3 | 0.00 | 0.38 | 0.38 | 83 | 1011.9 |
| 20260506185609 | 60 | 221 | 5.2 | 7.8 | 0.00 | 0.38 | 0.38 | 84 | 1011.9 |
| 20260506185105 | 60 | 118 | 6.1 | 8.7 | 0.00 | 0.38 | 0.38 | 84 | 1011.8 |
| 20260506184602 | 60 | 153 | 4.3 | 6.1 | 0.00 | 0.38 | 0.38 | 84 | 1011.7 |
| 20260506184100 | 60 | 156 | 6.1 | 11.3 | 0.00 | 0.38 | 0.38 | 84 | 1011.6 |
| 20260506183556 | 60 | 152 | 7.8 | 9.6 | 0.00 | 0.38 | 0.38 | 85 | 1011.8 |
| 20260506183052 | 60 | 157 | 8.7 | 12.2 | 0.00 | 0.38 | 0.38 | 85 | 1011.6 |
| 20260506182550 | 60 | 167 | 6.1 | 8.7 | 0.00 | 0.38 | 0.38 | 86 | 1011.3 |
| 20260506182047 | 60 | 192 | 5.2 | 7.8 | 0.00 | 0.38 | 0.38 | 86 | 1011.7 |
| 20260506181545 | 60 | 191 | 2.6 | 6.1 | 0.00 | 0.38 | 0.38 | 86 | 1011.4 |
| 20260506181041 | 60 | 196 | 6.1 | 7.8 | 0.00 | 0.38 | 0.38 | 87 | 1011.2 |
| 20260506180538 | 60 | 134 | 2.6 | 4.3 | 0.00 | 0.38 | 0.38 | 87 | 1011.3 |
| 20260506180035 | 60 | 162 | 5.2 | 7.0 | 0.00 | 0.38 | 0.38 | 88 | 1011.3 |
| 20260506175531 | 60 | 257 | 6.1 | 11.3 | 0.00 | 0.38 | 0.38 | 87 | 1011.3 |
| 20260506175027 | 60 | 131 | 8.7 | 12.2 | 0.00 | 0.38 | 0.38 | 87 | 1011.7 |
| 20260506174526 | 60 | 173 | 2.6 | 4.3 | 0.00 | 0.38 | 0.38 | 88 | 1011.3 |
| 20260506174022 | 60 | 155 | 6.1 | 8.7 | 0.00 | 0.38 | 0.38 | 88 | 1011.3 |
| 20260506173520 | 60 | 143 | 6.1 | 11.3 | 0.00 | 0.38 | 0.38 | 88 | 1011.7 |
| 20260506173017 | 60 | 150 | 7.8 | 11.3 | 0.00 | 0.38 | 0.38 | 88 | 1011.8 |
| 20260506172514 | 60 | 189 | 3.5 | 6.1 | 0.00 | 0.38 | 0.38 | 89 | 1011.4 |
| 20260506172010 | 60 | 136 | 3.5 | 4.3 | 0.00 | 0.38 | 0.38 | 89 | 1011.4 |
| 20260506171508 | 60 | 144 | 4.3 | 7.0 | 0.00 | 0.38 | 0.38 | 90 | 1011.8 |
| 20260506171005 | 60 | 186 | 5.2 | 7.0 | 0.00 | 0.38 | 0.38 | 90 | 1011.4 |
| 20260506170501 | 60 | 130 | 3.5 | 6.1 | 0.00 | 0.38 | 0.38 | 90 | 1011.4 |
| 20260506165954 | 60 | 148 | 4.3 | 7.8 | 0.00 | 0.38 | 0.38 | 90 | 1011.6 |
| 20260506165452 | 60 | 191 | 3.5 | 6.1 | 0.00 | 0.38 | 0.38 | 90 | 1011.6 |
| 20260506164942 | 60 | 150 | 5.2 | 7.0 | 0.00 | 0.38 | 0.38 | 90 | 1011.7 |
| 20260506164439 | 60 | 213 | 4.3 | 6.1 | 0.00 | 0.38 | 0.38 | 90 | 1011.7 |
| 20260506163937 | 60 | 159 | 2.6 | 5.2 | 0.00 | 0.38 | 0.38 | 90 | 1011.6 |
| 20260506163432 | 60 | 118 | 1.7 | 1.7 | 0.00 | 0.38 | 0.38 | 90 | 1011.7 |
| 20260506162927 | 60 | 184 | 4.3 | 6.1 | 0.00 | 0.38 | 0.38 | 90 | 1011.6 |
| 20260506162424 | 60 | 163 | 4.3 | 7.0 | 0.00 | 0.38 | 0.38 | 90 | 1011.7 |
| 20260506161921 | 60 | 161 | 2.6 | 5.2 | 0.00 | 0.38 | 0.38 | 90 | 1011.7 |
| 20260506161419 | 60 | 221 | 1.7 | 1.7 | 0.00 | 0.38 | 0.38 | 90 | 1011.7 |
| 20260506160911 | 61 | 213 | 1.7 | 1.7 | 0.00 | 0.38 | 0.38 | 90 | 1011.9 |
| 20260506160408 | 61 | 157 | 3.5 | 6.1 | 0.00 | 0.38 | 0.38 | 89 | 1011.7 |
| 20260506155906 | 61 | 168 | 2.6 | 6.1 | 0.00 | 0.38 | 0.38 | 89 | 1011.7 |
| 20260506155403 | 61 | 155 | 5.2 | 7.8 | 0.00 | 0.38 | 0.38 | 89 | 1011.7 |
| 20260506153525 | 61 | 175 | 1.7 | 2.6 | 0.00 | 0.38 | 0.38 | 88 | 1011.8 |
| 20260506153023 | 61 | 126 | 3.5 | 5.2 | 0.00 | 0.38 | 0.38 | 88 | 1011.7 |
| 20260506152519 | 61 | 177 | 2.6 | 6.1 | 0.00 | 0.38 | 0.38 | 89 | 1011.8 |
| 20260506152018 | 61 | 155 | 4.3 | 6.1 | 0.00 | 0.38 | 0.38 | 89 | 1011.9 |
| 20260506151515 | 61 | 151 | 3.5 | 5.2 | 0.00 | 0.38 | 0.38 | 89 | 1012.0 |
| 20260506151012 | 61 | 196 | 2.6 | 2.6 | 0.00 | 0.38 | 0.38 | 89 | 1011.9 |
| 20260506150508 | 61 | 180 | 2.6 | 6.1 | 0.00 | 0.38 | 0.38 | 89 | 1012.2 |
| 20260506150005 | 61 | 139 | 6.1 | 12.2 | 0.00 | 0.38 | 0.38 | 89 | 1012.0 |
| 20260506145502 | 61 | 151 | 3.5 | 7.0 | 0.00 | 0.38 | 0.38 | 89 | 1011.9 |
| 20260506144959 | 61 | 145 | 3.5 | 6.1 | 0.00 | 0.38 | 0.38 | 89 | 1012.0 |
| 20260506144456 | 61 | 166 | 1.7 | 1.7 | 0.00 | 0.38 | 0.38 | 90 | 1012.1 |
| 20260506143954 | 61 | 167 | 4.3 | 7.0 | 0.00 | 0.38 | 0.38 | 90 | 1012.2 |
| 20260506143451 | 61 | 160 | 3.5 | 5.2 | 0.00 | 0.38 | 0.38 | 91 | 1012.0 |
| 20260506142949 | 61 | 168 | 1.7 | 6.1 | 0.00 | 0.38 | 0.38 | 91 | 1012.0 |
| 20260506142447 | 61 | 189 | 4.3 | 7.8 | 0.00 | 0.38 | 0.38 | 91 | 1012.2 |
| 20260506141944 | 61 | 198 | 2.6 | 4.3 | 0.00 | 0.38 | 0.38 | 92 | 1012.2 |
| 20260506141442 | 60 | 177 | 3.5 | 4.3 | 0.00 | 0.38 | 0.38 | 92 | 1012.3 |
| 20260506140941 | 61 | 152 | 2.6 | 5.2 | 0.00 | 0.38 | 0.38 | 92 | 1012.3 |
| 20260506140437 | 61 | 192 | 3.5 | 6.1 | 0.00 | 0.38 | 0.38 | 93 | 1012.3 |
| 20260506135934 | 61 | 192 | 2.6 | 5.2 | 0.00 | 0.38 | 0.38 | 94 | 1012.3 |
| 20260506135431 | 60 | 200 | 0.9 | 0.9 | 0.00 | 0.38 | 0.38 | 94 | 1012.7 |
| 20260506134927 | 60 | 129 | 1.7 | 4.3 | 0.00 | 0.38 | 0.38 | 94 | 1012.4 |
| 20260506134423 | 60 | 172 | 1.7 | 1.7 | 0.00 | 0.38 | 0.38 | 94 | 1012.6 |
| 20260506133920 | 60 | 151 | 1.7 | 2.6 | 0.00 | 0.38 | 0.38 | 94 | 1012.5 |
| 20260506133418 | 60 | 186 | 0.9 | 1.7 | 0.00 | 0.38 | 0.38 | 94 | 1012.7 |
| 20260506132914 | 59 | 188 | 2.6 | 4.3 | 0.00 | 0.38 | 0.38 | 94 | 1012.7 |
| 20260506132411 | 59 | 129 | 2.6 | 4.3 | 0.00 | 0.38 | 0.38 | 94 | 1012.7 |
| 20260506131909 | 60 | 161 | 1.7 | 2.6 | 0.00 | 0.38 | 0.38 | 94 | 1012.8 |
| 20260506131405 | 60 | 129 | 0.9 | 4.3 | 0.00 | 0.38 | 0.38 | 94 | 1013.0 |
| 20260506130902 | 60 | 165 | 2.6 | 5.2 | 0.00 | 0.38 | 0.38 | 95 | 1012.9 |
| 20260506130358 | 60 | 186 | 3.5 | 7.0 | 0.00 | 0.38 | 0.38 | 95 | 1012.7 |
| 20260506125857 | 60 | 133 | 5.2 | 6.1 | 0.00 | 0.38 | 0.38 | 95 | 1012.7 |
| 20260506125355 | 60 | 124 | 1.7 | 2.6 | 0.00 | 0.38 | 0.38 | 95 | 1012.7 |
| 20260506124853 | 60 | 157 | 0.9 | 0.9 | 0.00 | 0.38 | 0.38 | 95 | 1012.7 |
| 20260506124349 | 59 | 109 | 2.6 | 4.3 | 0.00 | 0.38 | 0.38 | 95 | 1012.8 |
| 20260506123847 | 59 | 155 | 6.1 | 7.8 | 0.00 | 0.38 | 0.38 | 95 | 1013.1 |
| 20260506123345 | 59 | 203 | 2.6 | 4.3 | 0.00 | 0.38 | 0.38 | 95 | 1012.7 |
| 20260506122842 | 59 | 149 | 1.7 | 1.7 | 0.00 | 0.38 | 0.38 | 95 | 1013.0 |
| 20260506122339 | 59 | 167 | 0.9 | 1.7 | 0.00 | 0.38 | 0.38 | 95 | 1013.0 |
| 20260506121837 | 59 | 191 | 0.9 | 2.6 | 0.00 | 0.38 | 0.38 | 95 | 1012.8 |
| 20260506121334 | 59 | 191 | 1.7 | 2.6 | 0.00 | 0.38 | 0.38 | 95 | 1012.8 |
| 20260506120831 | 59 | 162 | 3.5 | 6.1 | 0.00 | 0.38 | 0.38 | 95 | 1013.1 |
| 20260506120329 | 59 | 172 | 1.7 | 1.7 | 0.00 | 0.38 | 0.38 | 95 | 1013.0 |
| 20260506115826 | 58 | 185 | 1.7 | 2.6 | 0.00 | 0.38 | 0.38 | 95 | 1013.0 |
| 20260506115324 | 58 | 144 | 0.0 | 0.0 | 0.00 | 0.38 | 0.38 | 94 | 1013.0 |
| 20260506114822 | 58 | 219 | 0.0 | 0.9 | 0.00 | 0.38 | 0.38 | 94 | 1013.0 |
| 20260506114319 | 58 | 169 | 1.7 | 2.6 | 0.00 | 0.38 | 0.38 | 94 | 1013.0 |
| 20260506113818 | 58 | 178 | 0.0 | 0.0 | 0.00 | 0.38 | 0.38 | 94 | 1012.9 |
| 20260506113315 | 58 | 194 | 2.6 | 4.3 | 0.00 | 0.38 | 0.38 | 94 | 1012.9 |
| 20260506112811 | 57 | 162 | 2.6 | 4.3 | 0.00 | 0.38 | 0.38 | 94 | 1013.0 |
| 20260506112309 | 57 | 179 | 0.9 | 1.7 | 0.00 | 0.38 | 0.38 | 94 | 1013.0 |
| 20260506111806 | 57 | 159 | 0.9 | 1.7 | 0.00 | 0.38 | 0.38 | 94 | 1013.2 |
| 20260506111304 | 57 | 180 | 0.0 | 0.0 | 0.00 | 0.38 | 0.38 | 94 | 1013.2 |
| 20260506110801 | 56 | 182 | 0.0 | 0.0 | 0.00 | 0.38 | 0.38 | 94 | 1013.1 |
| 20260506110258 | 56 | 175 | 0.0 | 0.0 | 0.00 | 0.38 | 0.38 | 94 | 1013.0 |
| 20260506105755 | 56 | 174 | 0.0 | 0.0 | 0.00 | 0.38 | 0.38 | 93 | 1013.2 |
| 20260506105252 | 56 | 174 | 0.0 | 0.0 | 0.00 | 0.38 | 0.38 | 93 | 1013.3 |
| 20260506104749 | 56 | 174 | 0.0 | 0.0 | 0.00 | 0.38 | 0.38 | 93 | 1013.2 |
| 20260506104247 | 57 | 192 | 0.0 | 0.0 | 0.00 | 0.38 | 0.38 | 93 | 1013.3 |
| 20260506103744 | 56 | 177 | 0.0 | 0.0 | 0.00 | 0.38 | 0.38 | 93 | 1013.6 |
| 20260506103242 | 56 | 183 | 0.9 | 0.9 | 0.00 | 0.38 | 0.38 | 93 | 1013.3 |
| 20260506102739 | 56 | 157 | 0.0 | 0.0 | 0.00 | 0.38 | 0.38 | 93 | 1013.6 |
| 20260506102237 | 56 | 152 | 2.6 | 2.6 | 0.00 | 0.38 | 0.38 | 93 | 1013.6 |
| 20260506101734 | 56 | 190 | 1.7 | 2.6 | 0.00 | 0.38 | 0.38 | 93 | 1013.6 |
| 20260506101230 | 56 | 158 | 2.6 | 4.3 | 0.00 | 0.38 | 0.38 | 93 | 1013.5 |
| 20260506100728 | 56 | 159 | 1.7 | 2.6 | 0.00 | 0.38 | 0.38 | 93 | 1013.4 |
| 20260506100226 | 56 | 160 | 1.7 | 2.6 | 0.07 | 0.38 | 0.38 | 94 | 1013.3 |
| 20260506095724 | 56 | 195 | 0.9 | 0.9 | 0.07 | 0.38 | 0.38 | 94 | 1013.4 |
| 20260506095220 | 56 | 242 | 2.6 | 5.2 | 0.05 | 0.37 | 0.37 | 94 | 1013.6 |
| 20260506094718 | 56 | 175 | 0.9 | 1.7 | 0.05 | 0.37 | 0.37 | 94 | 1013.5 |
| 20260506094216 | 56 | 182 | 0.0 | 0.9 | 0.00 | 0.36 | 0.36 | 94 | 1013.4 |
| 20260506093714 | 55 | 170 | 0.9 | 0.9 | 0.07 | 0.36 | 0.36 | 94 | 1013.6 |
| 20260506093211 | 55 | 174 | 0.9 | 0.9 | 0.07 | 0.36 | 0.36 | 93 | 1013.8 |
| 20260506092709 | 55 | 171 | 0.9 | 0.9 | 0.07 | 0.36 | 0.36 | 94 | 1013.6 |
| 20260506092206 | 55 | 191 | 2.6 | 5.2 | 0.05 | 0.35 | 0.35 | 93 | 1013.7 |
| 20260506091704 | 55 | 227 | 1.7 | 2.6 | 0.05 | 0.35 | 0.35 | 93 | 1013.6 |
| 20260506091201 | 55 | 169 | 0.9 | 1.7 | 0.14 | 0.34 | 0.34 | 93 | 1013.7 |
| 20260506090658 | 56 | 174 | 0.9 | 0.9 | 0.19 | 0.34 | 0.34 | 93 | 1013.7 |